Content
SEND FEEDBACK

Daily
Averages
Monthly
Summary
United States of America

CHESTERFIELD, MISSOURI


Home > North America > United States > Missouri
Elevation: 559 feet     Latitude: 38 41N     Longitude: 090 31W

WEATHER
 
SELECT A DAY
Number of Records: 203,322;   Date Range: 1/1/95 - 7/20/14
 
SHARE

PRINT THIS DATA

[ ← Previous Day ]
WEATHER ALMANAC - FEBRUARY 7, 2013
[ Next Day → ]
[ °C ]   °F
Weather ElementAverageHighLow
Temperature44.3 °F51.1 °F (12:51 pm)37 °F (1:51 am)
Dewpoint38.1 °F45 °F (4:51 pm)28.9 °F (6:51 am)
Humidity79.4 %93 % (4:51 pm)61 % (9:51 am)
Barometer29.96 in30.07 in (11:51 pm)29.87 in (2:06 pm)
Wind Speed8.3 mph21.9 mph (9:51 pm)
Wind Gust27.6 mph (7:41 pm)
Weather ElementAverage
Visibility6.2 mi
Wind DirectionSSW (216.2 °)

Weather ElementTotal
Precipitation0.32 in
Heating Degree Days21 (Base 65)
Averaged from 34 records on February 7, 2013
WEATHER CONDITIONS BREAKOUT
WIND DIRECTION BREAKOUT
WEATHER BY HOUR - FEBRUARY 7, 2013
[ °C ]   °F
Local TimeTemperatureDewpointHumidityBarometerVisibilityWind DirectionWind SpeedGust SpeedPrecipitationEventsConditions
1:51 AM37.0 °F30.0 °F76 %30.06 in10.0 miESE (110°)6.9 mphScattered Clouds
2:51 AM37.9 °F30.9 °F76 %30.05 in9.0 miSE (130°)9.2 mphMostly Cloudy
3:51 AM39.9 °F30.0 °F68 %30.01 in10.0 miSE (140°)11.5 mphScattered Clouds
4:51 AM41.0 °F30.0 °F65 %30.00 in10.0 miSSE (150°)8.1 mphMostly Cloudy
5:51 AM39.0 °F30.0 °F70 %30.00 in10.0 miESE (120°)8.1 mphMostly Cloudy
6:51 AM39.9 °F28.9 °F65 %29.99 in9.0 miSE (140°)11.5 mphMostly Cloudy
7:51 AM42.1 °F30.0 °F62 %29.99 in9.0 miSSE (150°)9.2 mph0.00 inMostly Cloudy
8:51 AM44.1 °F33.1 °F65 %29.98 in9.0 miSSE (150°)9.2 mph0.02 inMostly Cloudy
9:51 AM46.0 °F33.1 °F61 %29.98 in9.0 miVariable4.6 mphOvercast
10:51 AM46.0 °F36.0 °F68 %29.97 in10.0 miSE (140°)3.5 mph0.01 inOvercast
11:51 AM46.9 °F37.0 °F68 %29.94 in10.0 miCalmOvercast
12:51 PM51.1 °F37.9 °F61 %29.90 in10.0 miCalmOvercast
1:51 PM48.9 °F39.9 °F71 %29.89 in8.0 miNNW (330°)5.8 mph0.01 inRainLight Rain
2:06 PM48.2 °F39.2 °F71 %29.87 in8.0 miNW (320°)6.9 mph0.00 inRainLight Rain
2:37 PM46.4 °F41.0 °F81 %29.88 in3.0 miWNW (300°)6.9 mph0.05 inRainRain
2:51 PM46.0 °F42.1 °F86 %29.90 in3.0 miWNW (300°)6.9 mph0.07 inRainLight Rain
3:51 PM46.9 °F44.1 °F90 %29.89 in3.0 miWest (280°)3.5 mph0.08 inRainLight Rain
3:57 PM48.2 °F44.6 °F87 %29.87 in3.0 miCalm0.01 inRainLight Rain
4:10 PM48.2 °F44.6 °F87 %29.87 in4.0 miWest (280°)3.5 mph0.01 inRainLight Rain
4:29 PM48.2 °F44.6 °F87 %29.87 in3.0 miCalm0.01 inRainLight Rain
4:51 PM46.9 °F45.0 °F93 %29.90 in3.0 miWNW (290°)4.6 mph0.03 inRainLight Rain
5:11 PM46.4 °F44.6 °F93 %29.89 in3.0 miWest (280°)6.9 mph0.00 inRainLight Rain
5:29 PM46.4 °F44.6 °F93 %29.90 in3.0 miWNW (300°)5.8 mph0.00 inRainLight Rain
5:34 PM46.4 °F44.6 °F93 %29.90 in3.0 miWNW (300°)6.9 mph0.01 inRainLight Rain
5:51 PM46.9 °F44.1 °F90 %29.93 in3.0 miWNW (300°)6.9 mph0.01 inOvercast
6:51 PM46.9 °F44.1 °F90 %29.94 in3.0 miNW (310°)12.7 mphOvercast
7:41 PM44.6 °F41.0 °F87 %29.95 in5.0 miNNW (330°)19.6 mph27.6 mphOvercast
7:51 PM45.0 °F39.9 °F82 %29.97 in7.0 miNNW (330°)16.1 mph26.5 mphOvercast
8:51 PM44.1 °F39.0 °F82 %29.99 in7.0 miNW (320°)13.8 mph20.7 mphOvercast
9:51 PM42.1 °F37.9 °F85 %30.03 in7.0 miNW (310°)21.9 mph27.6 mphOvercast
10:38 PM41.0 °F37.4 °F87 %30.03 in5.0 miNW (310°)11.5 mphMostly Cloudy
10:51 PM41.0 °F37.0 °F86 %30.05 in5.0 miNW (310°)11.5 mphMostly Cloudy
11:17 PM39.2 °F35.6 °F87 %30.05 in3.0 miNW (310°)13.8 mphOvercast
11:51 PM39.0 °F35.1 °F86 %30.07 in3.0 miNW (310°)15.0 mph20.7 mphOvercast
Hourly data recorded from KSTL, located miles away from Chesterfield, Missouri







STORIES FROM OUR PARTNERS